Chehalis, WA

11:44 AM PDT on June 28, 2017 (GMT -0700)
Chehalis-Centralia

Weather History for KCLS - March, 2014

Change the Weather History Date:

Friday, March 7, 2014

  Actual Average (KTDO) Record (KTDO)
Temperature  
Mean Temperature 50 °F -  
Max Temperature 60 °F 55 °F 73 °F (2001)
Min Temperature 39 °F 35 °F 22 °F (1974)
Degree Days  
Heating Degree Days 16    
Moisture  
Dew Point 45 °F    
Average Humidity 88    
Maximum Humidity 100    
Minimum Humidity 45    
Precipitation  
Precipitation 0.01 in - - ()
Sea Level Pressure  
Sea Level Pressure 30.22 in    
Wind  
Wind Speed 4 mph (South)    
Max Wind Speed 12 mph    
Max Gust Speed 16 mph    
Visibility 9 miles    
Events Rain    
Averages and records for this station are not official NWS values.
T = Trace of Precipitation, MM = Missing Value Source: NWS Daily Summary

Daily Weather History Graph

Daily Weather History Graph

Search for Another Location

Airport or City:

Trip Planner

Search our weather history database for the weather conditions in past years. The results will help you decide how hot, cold, wet, or windy it might be!

Date:

Astronomy

Mar. 07, 2014 Rise Set
Actual Time 6:39 AM PST 6:06 PM PST
Civil Twilight 6:09 AM PST 6:36 PM PST
Nautical Twilight 5:34 AM PST 7:11 PM PST
Astronomical Twilight 4:59 AM PST 7:47 PM PST
Moon 10:14 AM PST (3/7) 12:38 AM PST (3/7)
Length of Visible Light 12h 26m
Length of Day
11h 26m
Waxing Crescent, 43% of the Moon is Illuminated
Mar 7
Waxing Crescent
Mar 8
First Quarter
Mar 16
Full
Mar 23
Last Quarter
Mar 30
New

Hourly Weather History & Observations

Time (PST) Temp. Windchill Dew Point Humidity Pressure Visibility Wind Dir Wind Speed Gust Speed Precip Events Conditions
12:15 AM 48.2 °F - 48.2 °F 100% 30.15 in 5.0 mi South 8.1 mph - N/A   Overcast
12:35 AM 48.2 °F - 46.4 °F 93% 30.17 in 10.0 mi South 5.8 mph - N/A   Overcast
12:55 AM 48.2 °F - 46.4 °F 93% 30.18 in 10.0 mi South 6.9 mph - N/A   Overcast
1:15 AM 48.2 °F - 46.4 °F 93% 30.18 in 10.0 mi South 3.5 mph - N/A   Overcast
1:35 AM 48.2 °F - 46.4 °F 93% 30.19 in 10.0 mi South 3.5 mph - N/A   Mostly Cloudy
1:55 AM 48.2 °F - 46.4 °F 93% 30.20 in 7.0 mi SW 3.5 mph - N/A   Overcast
2:15 AM 48.2 °F - 46.4 °F 93% 30.21 in 2.5 mi Calm Calm - N/A   Overcast
2:35 AM 46.4 °F 45.2 °F 46.4 °F 100% 30.21 in 4.0 mi SSW 3.5 mph - 0.01 in Rain Light Rain
2:55 AM 46.4 °F 44.3 °F 46.4 °F 100% 30.21 in 10.0 mi SE 4.6 mph - 0.01 in   Mostly Cloudy
3:15 AM 46.4 °F 44.3 °F 46.4 °F 100% 30.21 in 10.0 mi South 4.6 mph - N/A   Overcast
3:35 AM 46.4 °F 44.3 °F 46.4 °F 100% 30.21 in 10.0 mi SSW 4.6 mph - N/A   Overcast
3:55 AM 46.4 °F 45.2 °F 46.4 °F 100% 30.22 in 10.0 mi South 3.5 mph - N/A   Overcast
4:15 AM 46.4 °F 44.3 °F 46.4 °F 100% 30.22 in 7.0 mi South 4.6 mph - N/A   Overcast
4:35 AM 46.4 °F 45.2 °F 46.4 °F 100% 30.22 in 8.0 mi SSW 3.5 mph - N/A   Mostly Cloudy
4:55 AM 46.4 °F - 46.4 °F 100% 30.22 in 7.0 mi Calm Calm - N/A   Overcast
5:15 AM 46.4 °F 44.3 °F 46.4 °F 100% 30.23 in 6.0 mi South 4.6 mph - N/A   Overcast
5:35 AM 46.4 °F 45.2 °F 46.4 °F 100% 30.24 in 10.0 mi South 3.5 mph - N/A   Overcast
5:55 AM 46.4 °F 45.2 °F 46.4 °F 100% 30.24 in 10.0 mi South 3.5 mph - N/A   Overcast
6:15 AM 46.4 °F - 46.4 °F 100% 30.24 in 5.0 mi Calm Calm - N/A   Overcast
6:35 AM 46.4 °F - 46.4 °F 100% 30.25 in 10.0 mi Calm Calm - N/A   Overcast
6:55 AM 46.4 °F - 46.4 °F 100% 30.25 in 10.0 mi Calm Calm - N/A   Overcast
7:15 AM 46.4 °F 43.5 °F 46.4 °F 100% 30.26 in 6.0 mi South 5.8 mph - N/A   Overcast
7:35 AM 46.4 °F 44.3 °F 46.4 °F 100% 30.27 in 10.0 mi South 4.6 mph - N/A   Overcast
7:55 AM 48.2 °F - 46.4 °F 93% 30.27 in 10.0 mi South 5.8 mph - N/A   Mostly Cloudy
8:15 AM 48.2 °F - 46.4 °F 93% 30.29 in 10.0 mi SSE 5.8 mph - N/A   Mostly Cloudy
8:35 AM 50.0 °F - 46.4 °F 87% 30.29 in 10.0 mi South 8.1 mph - N/A   Mostly Cloudy
8:55 AM 50.0 °F - 46.4 °F 87% 30.30 in 10.0 mi South 5.8 mph - N/A   Mostly Cloudy
9:15 AM 50.0 °F - 46.4 °F 87% 30.29 in 10.0 mi South 10.4 mph - N/A   Scattered Clouds
9:35 AM 51.8 °F - 46.4 °F 82% 30.29 in 10.0 mi SSE 8.1 mph - N/A   Mostly Cloudy
9:55 AM 53.6 °F - 46.4 °F 77% 30.30 in 10.0 mi South 10.4 mph 16.1 mph N/A   Overcast
10:15 AM 53.6 °F - 46.4 °F 77% 30.30 in 10.0 mi South 9.2 mph - N/A   Overcast
10:35 AM 55.4 °F - 46.4 °F 72% 30.29 in 10.0 mi SSW 6.9 mph - N/A   Overcast
10:55 AM 55.4 °F - 46.4 °F 72% 30.30 in 10.0 mi South 10.4 mph - N/A   Overcast
11:15 AM 55.4 °F - 44.6 °F 67% 30.30 in 10.0 mi SSW 11.5 mph - N/A   Overcast
11:35 AM 57.2 °F - 44.6 °F 63% 30.30 in 10.0 mi SSW 9.2 mph 16.1 mph N/A   Overcast
11:55 AM 57.2 °F - 44.6 °F 63% 30.30 in 10.0 mi South 10.4 mph - N/A   Overcast
12:15 PM 57.2 °F - 42.8 °F 59% 30.29 in 10.0 mi SSW 9.2 mph - N/A   Overcast
12:35 PM 57.2 °F - 44.6 °F 63% 30.28 in 10.0 mi South 10.4 mph - N/A   Overcast
3:15 PM 60.8 °F - 39.2 °F 45% 30.21 in 10.0 mi SW 6.9 mph - N/A   Scattered Clouds
3:35 PM 60.8 °F - 41.0 °F 48% 30.21 in 10.0 mi SSW 5.8 mph - N/A   Mostly Cloudy
3:55 PM 60.8 °F - 41.0 °F 48% 30.21 in 10.0 mi South 5.8 mph - N/A   Scattered Clouds
4:15 PM 59.0 °F - 41.0 °F 51% 30.21 in 10.0 mi SW 4.6 mph - N/A   Scattered Clouds
4:35 PM 57.2 °F - 41.0 °F 55% 30.21 in 10.0 mi SW 3.5 mph - N/A   Partly Cloudy
4:55 PM 57.2 °F - 44.6 °F 63% 30.21 in 10.0 mi Calm Calm - N/A   Clear
5:15 PM 57.2 °F - 44.6 °F 63% 30.21 in 10.0 mi Calm Calm - N/A   Clear
5:35 PM 53.6 °F - 46.4 °F 77% 30.21 in 10.0 mi Calm Calm - N/A   Clear
5:55 PM 50.0 °F - 46.4 °F 87% 30.21 in 10.0 mi Calm Calm - N/A   Clear
6:15 PM 48.2 °F - 46.4 °F 93% 30.21 in 10.0 mi Calm Calm - N/A   Clear
6:35 PM 48.2 °F - 46.4 °F 93% 30.21 in 10.0 mi Calm Calm - N/A   Clear
6:55 PM 46.4 °F - 46.4 °F 100% 30.20 in 10.0 mi Calm Calm - N/A   Clear
7:15 PM 46.4 °F - 44.6 °F 93% 30.21 in 10.0 mi Calm Calm - N/A   Clear
7:35 PM 44.6 °F - 44.6 °F 100% 30.20 in 10.0 mi Calm Calm - N/A   Clear
7:55 PM 44.6 °F - 44.6 °F 100% 30.20 in 10.0 mi Calm Calm - N/A   Clear
8:15 PM 44.6 °F - 44.6 °F 100% 30.19 in 10.0 mi Calm Calm - N/A   Clear
8:35 PM 44.6 °F - 44.6 °F 100% 30.19 in 10.0 mi Calm Calm - N/A   Clear
8:55 PM 41.0 °F - 41.0 °F 100% 30.19 in 10.0 mi Calm Calm - N/A   Clear
9:15 PM 41.0 °F - 41.0 °F 100% 30.19 in 10.0 mi Calm Calm - N/A   Clear
9:35 PM 41.0 °F - 41.0 °F 100% 30.18 in 10.0 mi Calm Calm - N/A   Clear
10:15 PM 41.0 °F - 41.0 °F 100% 30.17 in 10.0 mi Calm Calm - N/A   Clear
10:35 PM 41.0 °F - 41.0 °F 100% 30.16 in 10.0 mi Calm Calm - N/A   Clear
10:55 PM 41.0 °F - 41.0 °F 100% 30.15 in 10.0 mi Calm Calm - N/A   Clear
11:15 PM 39.2 °F - 39.2 °F 100% 30.13 in 10.0 mi Calm Calm - N/A   Clear
11:35 PM 41.0 °F - 41.0 °F 100% 30.12 in 10.0 mi Calm Calm - N/A   Clear
11:55 PM 41.0 °F - 41.0 °F 100% 30.12 in 10.0 mi Calm Calm - N/A   Clear